WetterOnline ( http://www.wetteronline.de )

Wetter aktuell Tuttlingen

Aktuelles Wetter: Messstetten (900m)

6-stündlich | Neueste Meldungen
Ortszeit Temperatur Wetter
Do, 19.07. 8:00 18.1° C leicht bewölkt
Do, 19.07. 2:00 14.4° C wolkig
Mi, 18.07. 20:00 21.9° C leicht bewölkt
Mi, 18.07. 14:00 22.1° C fast wolkenlos
Mi, 18.07. 8:00 17.6° C wolkenlos
Mi, 18.07. 2:00 11.7° C bewölkt
Di, 17.07. 20:00 18.8° C bewölkt
Di, 17.07. 14:00 -° C Regen
Ortszeit Temperatur Wetter
Do, 19.07. 8:00 18.1° C leicht bewölkt
Do, 19.07. 7:50 18.1° C leicht bewölkt
Do, 19.07. 7:40 18.1° C leicht bewölkt
Do, 19.07. 7:30 14.5° C wolkig
Do, 19.07. 7:20 14.5° C wolkig
Do, 19.07. 7:10 13.4° C bewölkt
Do, 19.07. 7:00 10.1° C leicht bewölkt
Do, 19.07. 6:30 9.1° C wolkenlos
Do, 19.07. 6:00 9.0° C wolkenlos
Do, 19.07. 5:30 9.2° C wolkenlos
Do, 19.07. 5:00 11.5° C leicht bewölkt
Ortszeit Relative Feuchte Sichtweite
Do, 19.07. 8:00 57% 35 km
Do, 19.07. 2:00 67% 60 km
Mi, 18.07. 20:00 51% 45 km
Mi, 18.07. 14:00 47% 30 km
Mi, 18.07. 8:00 65% 35 km
Mi, 18.07. 2:00 89% 30 km
Di, 17.07. 20:00 62% 45 km
Di, 17.07. 14:00 - 6 km
Ortszeit Relative Feuchte Sichtweite
Do, 19.07. 8:00 57% 35 km
Do, 19.07. 7:50 57% -
Do, 19.07. 7:40 66% -
Do, 19.07. 7:30 81% 27 km
Do, 19.07. 7:20 81% -
Do, 19.07. 7:10 77% -
Do, 19.07. 7:00 91% 30 km
Do, 19.07. 6:30 90% 24 km
Do, 19.07. 6:00 88% 30 km
Do, 19.07. 5:30 87% 30 km
Do, 19.07. 5:00 78% 50 km
Ortszeit Niederschlagsmenge Niederschlagsart
Do, 19.07. 8:00 0.0 l/m2 in 12 Std. -
Do, 19.07. 2:00 0.0 l/m2 in 6 Std. -
Mi, 18.07. 20:00 0.0 l/m2 in 12 Std. -
Mi, 18.07. 14:00 0.0 l/m2 in 6 Std. -
Mi, 18.07. 8:00 0.1 l/m2 in 12 Std. -
Mi, 18.07. 2:00 0.1 l/m2 in 6 Std. Regen
Di, 17.07. 20:00 4 l/m2 in 12 Std. Regen
Di, 17.07. 14:00 2 l/m2 in 6 Std. -
Ortszeit Niederschlagsmenge Niederschlagsart
Do, 19.07. 8:00 0.0 l/m2 in 1 Std. -
Do, 19.07. 7:50 keine Meldung -
Do, 19.07. 7:40 keine Meldung -
Do, 19.07. 7:30 0.0 l/m2 in 1 Std. -
Do, 19.07. 7:20 keine Meldung -
Do, 19.07. 7:10 keine Meldung -
Do, 19.07. 7:00 0.0 l/m2 in 1 Std. -
Do, 19.07. 6:30 0.0 l/m2 in 1 Std. -
Do, 19.07. 6:00 0.0 l/m2 in 1 Std. -
Do, 19.07. 5:30 0.0 l/m2 in 1 Std. -
Do, 19.07. 5:00 0.0 l/m2 in 1 Std. -
Ortszeit Stärke Spitze Richtung
km/h Bft. km/h Grad Sektor
Do, 19.07. 8:00 4 1 11 80° O
Do, 19.07. 2:00 7 2 14 80° O
Mi, 18.07. 20:00 4 1 25 340° N
Mi, 18.07. 14:00 7 2 18 340° N
Mi, 18.07. 8:00 4 1 7 330° NW
Mi, 18.07. 2:00 2 1 31 70° O
Di, 17.07. 20:00 7 2 36 310° NW
Di, 17.07. 14:00 11 2 29 30° NO
Ortszeit Stärke Spitze Richtung
km/h Bft. km/h Grad Sektor
Do, 19.07. 8:00 4 1 7 80° O
Do, 19.07. 7:50 4 1 - 80° O
Do, 19.07. 7:40 2 1 - 80° O
Do, 19.07. 7:30 4 1 4 110° O
Do, 19.07. 7:20 4 1 - 110° O
Do, 19.07. 7:10 4 1 - 80° O
Do, 19.07. 7:00 0 0 4 - -
Do, 19.07. 6:30 0 0 4 - -
Do, 19.07. 6:00 0 0 7 - -
Do, 19.07. 5:30 0 0 4 - -
Do, 19.07. 5:00 4 1 7 90° O
Ortszeit Untergrenze Bedeckung Gattung
total tief tief mittel hoch
Do, 19.07. 8:00 1500 m 3/8 3/8 - - -
Do, 19.07. 2:00 9000 m 8/8 0/8 - - -
Mi, 18.07. 20:00 9000 m 3/8 0/8 - - -
Mi, 18.07. 14:00 1500 m 1/8 - - - -
Mi, 18.07. 8:00 - 0/8 0/8 - - -
Mi, 18.07. 2:00 2100 m 7/8 7/8 - - -
Di, 17.07. 20:00 1230 m 8/8 7/8 - - -
Di, 17.07. 14:00 60 m 8/8 8/8 - - -
Ortszeit Bedeckungsgrad in Achtel und Wolkenuntergrenze
Do, 19.07. 8:00 2(1500m) 3(1800m)
Do, 19.07. 7:50 2(1500m) 3(1800m)
Do, 19.07. 7:40 2(1800m)
Do, 19.07. 7:30 4(1500m) 5(1800m)
Do, 19.07. 7:20 4(1500m) 5(1800m)
Do, 19.07. 7:10 5(1500m) 7(1800m)
Do, 19.07. 7:00 1(1500m) 5(1800m)
Do, 19.07. 6:30 keine Wolken
Do, 19.07. 6:00 keine Wolken
Do, 19.07. 5:30 keine Wolken
Do, 19.07. 5:00 6(9000m)
Ortszeit Stationsdruck (hPa) Tendenz (hPa in 3 Std.)
Do, 19.07. 8:00 916 0,0
Do, 19.07. 2:00 916 + 0,4
Mi, 18.07. 20:00 915 - 0,5
Mi, 18.07. 14:00 916 - 0,4
Mi, 18.07. 8:00 916 + 0,1
Mi, 18.07. 2:00 917 0,0
Di, 17.07. 20:00 916 0,0
Di, 17.07. 14:00 916 + 0,8
Ortszeit Stationsdruck (hPa) Tendenz (hPa in 3 Std.)
Do, 19.07. 8:00 916 0,0
Do, 19.07. 7:50 916 keine Meldung
Do, 19.07. 7:40 916 keine Meldung
Do, 19.07. 7:30 916 0,0
Do, 19.07. 7:20 916 keine Meldung
Do, 19.07. 7:10 916 keine Meldung
Do, 19.07. 7:00 916 0,0
Do, 19.07. 6:30 916 - 0,2
Do, 19.07. 6:00 916 - 0,3
Do, 19.07. 5:30 916 - 0,4
Do, 19.07. 5:00 916 - 0,4
Ortszeit Schneehöhe (cm)
Do, 19.07. 8:00 -
Do, 19.07. 2:00 -
Mi, 18.07. 20:00 -
Mi, 18.07. 14:00 -
Mi, 18.07. 8:00 -
Mi, 18.07. 2:00 -
Di, 17.07. 20:00 -
Di, 17.07. 14:00 -
Ortszeit Schneehöhe (cm)
Do, 19.07. 8:00 -
Do, 19.07. 7:50 -
Do, 19.07. 7:40 -
Do, 19.07. 7:30 -
Do, 19.07. 7:20 -
Do, 19.07. 7:10 -
Do, 19.07. 7:00 -
Do, 19.07. 6:30 -
Do, 19.07. 6:00 -
Do, 19.07. 5:30 -
Do, 19.07. 5:00 -
Link zu dieser Seite / Seite empfehlen

Das Wetter in ...